Regional Weather Roundup
Issued by NWS

Home | Current Version | Previous Version | Graphics & Text | Print | Product List | Glossary On
Versions: 1 2 3 4 5 6 7 8 9 10 11 12 13 14 15 16 17 18 19 20 21 22 23 24 25 26 27 28 29 30 31 32 33 34 35 36 37 38 39 40 41 42 43 44 45 46 47 48 49 50
000
ASUS43 KMKX 121020
RWRWI

WISCONSIN REGIONAL WEATHER ROUNDUP
NATIONAL WEATHER SERVICE MILWAUKEE/SULLIVAN WI
400 AM CST FRI FEB 12 2016

NOTE: "FAIR" INDICATES FEW OR NO CLOUDS BELOW 12,000 FEET WITH NO
SIGNIFICANT WEATHER AND/OR OBSTRUCTIONS TO VISIBILITY.

WIZ001-002-006>008-014>016-023>028-121100-
NORTHWEST WISCONSIN

CITY           SKY/WX    TMP DP  RH WIND       PRES   REMARKS
SUPERIOR ARPT  CLEAR      6  -3  65 NW10      30.21S WCI  -8
ASHLAND        MOCLDY     9   0  67 W12G21    30.14R WCI  -6
HAYWARD        CLEAR      7  -2  66 NW7       30.12R WCI  -5
SIREN          CLEAR      9   0  65 NW10      30.19R WCI  -5
CUMBERLAND     CLOUDY    10   0  61 NW13      30.13R WCI  -5
RICE LAKE      MOCLDY    12   1  62 NW12      30.16R WCI  -2
CHETEK         CLOUDY    12   6  79 NW6       30.14S WCI   2
LADYSMITH      CLOUDY    12   2  66 NW10      30.12S WCI  -2
EAU CLAIRE     CLOUDY    13   6  74 W9        30.15S WCI   1
MENOMONIE      FLURRIES  15   8  75 W8        30.17S WCI   3
NEW RICHMOND   MOCLDY    12   7  80 NW7       30.18R WCI   1
OSCEOLA        CLOUDY    14   4  63 NW12G18   30.23R WCI   0
$$

WIZ003>005-009-010-017-018-121100-
NORTH CENTRAL WISCONSIN

CITY           SKY/WX    TMP DP  RH WIND       PRES   REMARKS
MANITOWISH WTR LGT SNOW   8   2  76 NW8       30.00S WCI  -5
ARBOR VITAE    CLOUDY    11   2  67 NW9G16    30.00S WCI  -1
WOODRUFF       CLOUDY    11   2  67 NW9G16    30.00S WCI  -1
RHINELANDER    CLOUDY     9  -1  64 W9G18     30.00F WCI  -4
EAGLE RIVER    CLOUDY     9  -1  65 W13G20    29.98S WCI  -7
LAND O LAKES   LGT SNOW   9   4  80 W6        29.98S WCI  -1
PHILLIPS       CLOUDY     8  -1  65 NW8       30.04S WCI  -4
TOMAHAWK       CLOUDY     9   2  73 NW7       30.04S WCI  -3
MEDFORD        CLOUDY    10   4  75 W8        30.05S WCI  -2
MERRILL        CLOUDY    11   2  68 NW7       30.06S WCI   0
$$

WIZ029-030-035-036-043>047-121100-
CENTRAL WISCONSIN

CITY           SKY/WX    TMP DP  RH WIND       PRES   REMARKS
WAUSAU         CLOUDY    13   3  64 NW10      30.05F WCI   0
MOSINEE        CLOUDY    12   5  73 W12       30.07F WCI  -2
MARSHFIELD     CLOUDY    13   3  64 W12       30.07S WCI  -1
STEVENS POINT  CLOUDY    11   2  67 W7        30.08F WCI   0
WAUPACA        CLOUDY    16   3  57 W9        30.10S WCI   4
WAUTOMA        CLOUDY    14   2  59 W9        30.12F WCI   2
WISC RAPIDS    CLOUDY    13   2  61 W8        30.12S WCI   2
CAMP DOUGLAS   CLOUDY    13   9  86 W10       30.13F WCI  -1
$$

WIZ011>013-019>022-031-037>040-048>050-121100-
NORTHEAST WISCONSIN

CITY           SKY/WX    TMP DP  RH WIND       PRES   REMARKS
ANTIGO         CLOUDY     9   1  69 W10G17    30.01F WCI  -6
SHAWANO        CLOUDY    15   2  56 W5        30.08S WCI   8
OCONTO         CLOUDY    14   1  57 W8        30.07F WCI   2
STURGEON BAY   CLOUDY    12   0  57 W9        30.06S WCI   0
GREEN BAY      CLOUDY    15   3  59 W12       30.08F WCI   2
MANITOWOC      CLOUDY    15   4  61 W9        30.09F WCI   3
APPLETON       CLOUDY    14   1  57 W12       30.06F WCI   0
CLINTONVILLE   CLOUDY    14   3  62 W9        30.08F WCI   2
OSHKOSH        CLOUDY    14   2  58 W8        30.09F WCI   3
$$

WIZ032>034-041-042-053>061-121100-
SOUTHWEST WISCONSIN

CITY           SKY/WX    TMP DP  RH WIND       PRES   REMARKS
LA CROSSE      CLOUDY    14   7  73 NW5       30.19S WCI   6
SPARTA         CLOUDY    13   8  81 W3        30.16S
VIROQUA        CLOUDY    11   8  87 W6        30.12F WCI   1
BOSCOBEL       LGT SNOW  15   9  76 W5        30.19S WCI   8
PRAIRIE DU CHI LGT SNOW  14   9  79 CALM      30.20S
PLATTEVILLE    CLOUDY    15   8  75 W8        30.15F WCI   4
$$

WIZ056-057-062-063-064-067-068-121100-
SOUTH CENTRAL WISCONSIN

CITY           SKY/WX    TMP DP  RH WIND       PRES   REMARKS
REEDSBURG      FLURRIES  13   6  75 W9        30.14S WCI   0
BARABOO/DELLS  CLOUDY    13   5  71 W9        30.12S WCI   0
LONE ROCK      FLURRIES  14   7  73 W6        30.18S WCI   5
MINERAL POINT  LGT SNOW  16  10  79 W8        30.13F WCI   5
MADISON        CLOUDY    15   2  56 VRB6      30.12F WCI   6
MIDDLETON      CLOUDY    17   6  64 W10G17    30.13F WCI   4
WATERTOWN      CLOUDY    16   2  54 W13       30.11F WCI   2
MONROE         CLOUDY    18   9  68 W8        30.13S WCI   7
JANESVILLE     CLOUDY    19   9  63 W6        30.14F WCI  11
$$

WIZ051-052-058>065-066-070>072-121100-
SOUTHEAST WISCONSIN

CITY           SKY/WX    TMP DP  RH WIND       PRES   REMARKS
MILWAUKEE      CLOUDY    18   3  52 W12G18    30.12F WCI   5
WAUKESHA       CLOUDY    16   5  62 W9        30.12S WCI   4
MILWAUKEE/TIMM CLOUDY    18   3  53 W12       30.12S WCI   5
RACINE         CLOUDY    18   5  57 W10       30.13F WCI   6
BURLINGTON     CLOUDY    16   5  62 W9        30.13F WCI   4
KENOSHA        CLOUDY    18   6  59 W10       30.13F WCI   6
FOND DU LAC    CLOUDY    15   3  59 W9        30.10F WCI   3
SHEBOYGAN      CLOUDY    15   2  56 W8G18     30.09S WCI   4
WEST BEND      CLOUDY    16   1  53 W9G16     30.09F WCI   4
JUNEAU         CLOUDY    14   1  56 W10       30.11F WCI   2
$$

LSZ147-162-121100-
LAKE SUPERIOR

STATION/POSITION TIME  TEMP    WIND        PRES    WAVE
                       AIR SEA DIR/SP/G            HT/PER
                 (UTC) (F)     (DEG/KT/KT) (MB)    (FT/S)
DEVILS ISLAND    1000   11     300/ 22/ 27 1021.4R
PORT WING        0900   12     300/ 15/ 23 1021.3R
SAXON HARBOR     0940   13                 1019.3S
$$

LMZ867-665-643>646-121100-
LAKE MICHIGAN

STATION/POSITION TIME  TEMP    WIND        PRES    WAVE
                       AIR SEA DIR/SP/G            HT/PER
                 (UTC) (F)     (DEG/KT/KT) (MB)    (FT/S)
CHAMBERS ISLAND  0900   15     240/  5/ 16 1017.6F
ALGOMA LAKESHORE 0911          280/  5/  9   N/A
KEWAUNEE LAKESHO 0900   16     280/  8/ 11 1017.7F
SHEBOYGAN LAKESH 1000   16     280/ 10/ 13 1020.7S
PORT WASHINGTON  0900   18     280/  9/ 16 1020.7F
MILWAUKEE LAKESH 1010   19     280/ 13/ 16   N/A
KENOSHA   LAKESH 1000   19     270/ 11/ 15 1020.3F
$$

TC  - TEMPERATURE IN CELSIUS
VSB - VISIBILITY IN STATUTE MILES
WCI - WIND CHILL INDEX
HX  - HEAT INDEX




USA.gov is the U.S. government's official web portal to all federal, state and local government web resources and services.